Air Resources Laboratory banner image
Air Resources Laboratory web site National Oceanic and Atmospheric Administration (NOAA)

wa roundup


Office: SEW

ASUS46 KSEW 121910
RWRWA

WASHINGTON REGIONAL WEATHER ROUNDUP
NATIONAL WEATHER SERVICE SEATTLE WA
1100 AM PST WED DEC 12 2018

NOTE:"FAIR" INDICATES FEW OR NO CLOUDS BELOW 12,000 FEET WITH NO
SIGNIFICANT WEATHER AND/OR OBSTRUCTIONS TO VISIBILITY.

WAZ507-509-555>559-122000-
SEATTLE, TACOMA, EVERETT, AND VICINITY

CITY           SKY/WX    TMP DP  RH WIND       PRES   REMARKS
EVERETT        CLOUDY    42  38  85 SE16      30.26F
BOEING FIELD   CLOUDY    46  38  73 S8        30.29S
RENTON         CLOUDY    46  37  71 SE7       30.29F
SEATAC AIRPORT CLOUDY    45  38  76 S10       30.28F
JBLM-MCCHORD   CLOUDY    44  44  99 S10       30.30S
PUYALLUP       FAIR      45  39  81 S6        30.30S
BREMERTON      CLOUDY    42  39  89 S12       30.28R
JBLM-FT LEWIS  PTSUNNY   45  45  99 SE12      30.30R
TACOMA NARROWS CLOUDY    45  38  76 S12G21    30.29S
$$

WAZ001-503-506-510-514-515-122000-
NORTH INTERIOR

CITY           SKY/WX    TMP DP  RH WIND       PRES   REMARKS
BELLINGHAM     CLOUDY    46  37  71 S15G22    30.21R
FRIDAY HARBOR  CLOUDY    46  38  73 SE8       30.22S
EASTSOUND      CLOUDY    46  41  81 S12G20    30.19F
PORT ANGELES   CLOUDY    46  36  68 SE6       30.20F
EDIZ HOOK      FAIR      46  36  66 E3        30.21F
PORT TOWNSEND  FAIR      41  37  87 MISG      30.24S
NAS WHIDBEY    CLOUDY    48  39  71 SE15      30.28S
ARLINGTON      CLOUDY    43  39  86 SE10      30.28S
BURLINGTON     MOSUNNY   45  39  81 S7        30.25S
$$

WAZ020-022-039-040-504-511-512-122000-
SOUTHWEST INTERIOR

CITY           SKY/WX    TMP DP  RH WIND       PRES   REMARKS
SHELTON        CLOUDY    45  41  86 CALM      30.26F
OLYMPIA        CLOUDY    43  40  89 SW6       30.32R
CHEHALIS       FAIR      45  41  87 S8        30.33R
KELSO          CLOUDY    44  42  93 S6        30.36S
VANCOUVER      CLOUDY    46  41  82 S5        30.35F
SCAPPOOSE, OR  CLOUDY    44  41  89 CALM      30.35F
PORTLAND, OR   CLOUDY    47  41  80 S5        30.36F
$$

WAZ021-516-517-122000-
WASHINGTON COAST

CITY           SKY/WX    TMP DP  RH WIND       PRES   REMARKS
FORKS          CLOUDY    43  41  93 VRB6      30.20F
HOQUIAM        CLOUDY    47  44  90 SE8       30.28F FOG
ASTORIA, OR    CLOUDY    48  42  80 S6        30.32S
$$

WAZ019-023-024-040-567>569-122000-
CASCADE MOUNTAINS AND COLUMBIA GORGE

CITY           SKY/WX    TMP DP  RH WIND       PRES   REMARKS
STAMPEDE PASS  NOT AVBL
TROUTDALE, OR  CLOUDY    49  42  77 W6        30.36F
HOOD RIVER, OR CLOUDY    46  39  76 NW8       30.32S
THE DALLES, OR MOSUNNY   47  38  71 NW9       30.34R
$$

WAZ026-027-041>044-520-521-122000-
EAST SLOPES

CITY           SKY/WX    TMP DP  RH WIND       PRES   REMARKS
OMAK           MOSUNNY   27  25  92 SE5       30.11R
WENATCHEE      MOSUNNY   41  29  62 W14       30.15R
ELLENSBURG     SUNNY     42  30  62 W17G24    30.20R
YAKIMA         SUNNY     48  25  40 VRB3      30.24R
SUNNYSIDE ARPT PTCLDY    47  32  57 W3        30.26R
YAKIMA TC      NOT AVBL
$$

WAZ028-034-035-122000-
COLUMBIA BASIN

CITY           SKY/WX    TMP DP  RH WIND       PRES   REMARKS
EPHRATA        MOSUNNY   47  24  40 W9        30.15R
MOSES LAKE     SUNNY     44  28  53 W13       30.17R
PASCO          SUNNY     49  31  49 SW21      30.26R
RICHLAND ARPT  PTCLDY    49  32  52 SW14G22   30.26R
HERMISTON, OR  MOSUNNY   49  33  54 W16G35    30.28R
$$

WAZ036>038-122000-
NORTHEAST WASHINGTON

CITY           SKY/WX    TMP DP  RH WIND       PRES   REMARKS
SPOKANE GEIGER MOSUNNY   35  30  82 SW16      30.09R WCI  25
SPOKANE FELTS  FAIR      38  30  73 SW12      30.11R
FAIRCHILD AFB  SUNNY     35  35 100 SW12      30.09R WCI  27
COEURDALENE,ID CLOUDY    37  31  78 SW6       30.10R
DEER PARK      SUNNY     35  29  78 SW10      30.08R WCI  27
$$

WAZ029>033-122000-
SOUTHEAST WASHINGTON

CITY           SKY/WX    TMP DP  RH WIND       PRES   REMARKS
PULLMAN        PTSUNNY   40  31  70 W18G30    30.16R
LEWISTON, ID   PTSUNNY   46  26  45 W18G25    30.18R
WALLA WALLA    PTSUNNY   44  33  65 SW14G24   30.27R
PENDLETON, OR  MOSUNNY   45  32  60 W22G32    30.27R
$$


ASUS66 KSEW 121930
RTPSEW
Max/Min Temperature And Precipitation Table For Washington
National Weather Service Seattle WA
1130 AM PST Wed Dec 12 2018

:Western Washington Cooperative Station Observations
:
:These are the daily observations for the past 24 hours.
:Some temperature values are from the previous day.
:Some stations only report precipitation.

.BR SEA 1212  P DH11/TAIRZX/TAIRZN/PPDRZZ/SFDRZZ/SDIRZZ
:
:                               Obs    24hr  24hr   24hr   Snow  Snow
:ID    Station           Elev   time   high  low    pcpn   fall  dpth
:
CNCW1 :Concrete Dam       195   0600 :  43 /  38 /  1.03 /   M /  M
MAWW1 :Mayfield           280   0600 :  49 /  40 /  0.97 / 0.0 /  0
PSBW1 :Poulsbo            217   0600 :     /     /  0.44 /   M /  M
UBKW1 :Upper Baker Dam    690   0600 :  40 /  32 /  2.10 / 0.0 /  0
CPHW1 :Cushman Power #2    21   0700 :  47 /  37 /  2.08 /   M /  M
ABDW1 :Aberdeen            10   0800 :  54 /  39 /  2.02 /   M /  M
EVEW1 :Everett             60   0800 :  50 /  39 /  0.22 /   M /  M
HTUW1 :Humptulips         140   0700 :  52 /  36 /  2.30 /   M /  M
KAMW1 :Kalama             310   0800 :     /     /  1.11 /   M /  M
RLGW1 :Rainier,Longmire  2762   M    :  37 /  30 /     M /   M /
MMLW1 :McMillin Rsvr.     579   0900 :  49 /  39 /  0.95 /   M /  M
ROSW1 :Ross Dam          1236   0830 :  37 /  31 /  1.66 /   M /  M
SQLW1 :Snoqualmie Falls   440   0800 :   M /   M /  1.35 /   M /  M
BRMW1 :Bremerton          110   0830 :  48 /  34 /  0.98 /   M /  M
:
:M = missing
:T = trace
:Precipitation measured in inches.
:Elevation measured in feet.
:Time of observation is in local standard time.
.End


These data are preliminary and have not undergone final
quality control by the National Centers for Environmental
Information (NCEI). Therefore, these data are subject to
revision. Final and certified climate data can be accessed
at www.ncei.noaa.gov.

$$